Weather in Kraslava

Latvia     55°53′56″N   27°10′15″E
temp.,
°C
wind,
m/s
gust,
m/s
humid.,
%
clouds,
%
prec.,
mm/h
press.,
hPa
HPBL,
m
21 april, wed
wed2100:00+6se2485100 0.0 1012261
03:00+5ese2388100 0.0 1011180
06:00+5sw1191100 0.0 100947
09:00+6sw1178100 0.0 1008332
12:00+9ssw236852 0.0 1006761
15:00+11wsw3460100 1.1 10051122
18:00+10w3672100 1.8 1004745
21:00+7sw228222 2.1 100534
22 april, thu
thu2200:00+5sw398599 0.0 1006204
03:00+4sw298825 0.0 1006202
06:00+3sw27915 0.0 1007179
09:00+7sw378175 0.1 1007565
12:00+7w4585100 0.1 1008757
15:00+5sw3885100 0.1 1009665
18:00+8ssw3959100 0.1 10071731
21:00+4sw397360 0.2 1008233
23 april, fri
fri2300:00+2sw310805 0.0 1008550
03:00+1ssw398454 0.0 1008603
06:00+2sw5876100 0.0 10071030
09:00+2ssw51089100 0.1 1008838
12:00+2sw5990100 0.3 1009820
15:00+5wsw5768100 0.9 10101261
18:00+5w4769100 1.1 10111226
21:00+1wnw268968 1.5 1012181
24 april, sat
sat2400:000wsw2696100 0.0 1012177
03:000wsw4991100 0.0 1011521
06:00−1sw41097100 0.5 1010669
09:00+1w51089100 1.3 1010912
12:00+2wnw51088100 0.7 1011978
15:00+4w61181100 1.8 10111305
18:00+4w61176100 0.6 10101299
21:00+1w5118678 0.7 1011863
25 april, sun
sun2500:00+1w5993100 0.1 1010804
03:00+1w4997100 0.6 1010852
06:000w51197100 0.5 1010698
09:00+1w51096100 1.3 1010789
12:00+2wnw61087100 0.8 1011989
15:00+4wnw6107790 1.2 10111374
18:00+3wnw6107896 0.6 10111262
21:000wnw4108892 0.7 1012692